Regional Weather Roundup
Issued by NWS Newport/Morehead, NC

Current Version | Previous Version | Text Only | Print | Product List | Glossary On
Versions: 1 2 3 4 5 6 7 8 9 10 11 12 13 14 15 16 17 18 19 20 21 22 23 24 25 26 27 28 29 30 31 32 33 34 35 36 37 38 39 40 41 42 43 44 45 46 47 48 49 50
000 ASUS42 KMHX 270322 RWRMHX WEATHER ROUNDUP FOR EASTERN NORTH CAROLINA NATIONAL WEATHER SERVICE NEWPORT/MOREHEAD CITY NC 1000 PM EST MON JAN 26 2015 NOTE: "FAIR" INDICATES FEW OR NO CLOUDS BELOW 12,000 FEET WITH NO SIGNIFICANT WEATHER AND/OR OBSTRUCTIONS TO VISIBILITY NCZ015>017-031-032-045>047-102-103-270400- NORTH COAST CITY SKY/WX TMP DP RH WIND PRES REMARKS EDENTON CLOUDY 41 37 86 NW12G20 29.62R ELIZABETH CITY CLOUDY 40 36 86 N21G26 29.60R KITTY HAWK CLOUDY 41 39 94 NW13G23 29.55S MANTEO CLOUDY 41 39 93 NW10G18 29.57R $$ NCZ045>047-081-094-103-104-270400- CENTRAL COAST CITY SKY/WX TMP DP RH WIND PRES REMARKS FRISCO CLOUDY 46 43 89 NW10G17 29.56R SWANQUARTER NOT AVBL $$ NCZ095-097-098-100-101-270400- SOUTHERN COAST CITY SKY/WX TMP DP RH WIND PRES REMARKS BEAUFORT PTCLDY 46 44 93 NW14 29.59F CEDAR ISLAND NOT AVBL JACKSONVILLE CLOUDY 47 43 86 NW9 29.62S PINEY ISLAND N/A N/A N/A N/A MISG 29.58S WILMINGTON CLOUDY 47 45 93 W8 29.65S $$ NCZ011>013-027>030-043-044-078>080-089-090>093-098-270400- COASTAL PLAIN CITY SKY/WX TMP DP RH WIND PRES REMARKS AHOSKIE CLOUDY 38 35 88 N8G16 29.66R CLINTON DRIZZLE 46 44 94 NW6 29.67S ELIZABETHTOWN CLOUDY 46 44 90 NW6 29.67S GOLDSBORO CLOUDY 45 45 100 NW9 29.63S GREENVILLE CLOUDY 45 43 93 N9 29.66S HAVELOCK PTCLDY 46 43 89 W8 29.61S KENANSVILLE CLOUDY 46 42 85 NW6 29.66S KINSTON MOCLDY 46 42 85 NW9 29.64R NEW BERN MOCLDY 48 42 80 W6 29.62S RICHLANDS MOCLDY 46 41 81 CALM 29.64S ROCKY MOUNT CLOUDY 44 39 82 NW15 29.66R WASHINGTON MOCLDY 44 42 89 NW7G17 29.61S WHITEVILLE CLOUDY 48 40 75 CALM 29.67S $$ AMZ130-135-150-152-154-156-158-170-250-252-270-ANZ085-086-088-633-658-670-270400- MARINE OBSERVATIONS STATION/POSITION TIME TEMP WIND PRES WAVE SWELL AIR SEA DIR/SP/G HT/PER HT/PER (UTC) (F) (DEG/KT/KT) (MB) (FT/S) (FT/S) CHESAPEAKE LIGHT 0300 37 330/ 30/ 33 1001.2 64 E VA BEACH 0300 45 52 320/ 27/ 33 997.0 8/ 8 2/13 DUCK 0300 40 44 330/ 25/ 28 1000.1 2 E DUCK 0300 44 N/A 5/ 5 10 NE DUCK 0300 45 N/A 7/ 6 OREGON INLET 0300 42 47 320/ 19/ 24 1000.4 13E OREGON INLT 0300 46 N/A 7/ 6 2/12 HATTERAS CG 0300 47 52 330/ 17/ 18 1001.2 DIAMOND BUOY 0300 51 70 320/ 21/ 25 999.9 4/ 4 2/ 9 17 S OCRACOKE NOT AVBL CAPE LOOKOUT 0300 48 300/ 16/ 19 1001.6 BEAUFORT LAB 0300 47 50 300/ 7/ 11 1000.9 27 SE WRIGHTSVLE NOT AVBL 5 SE WRIGHTSVLE 0300 49 52 310/ 14/ 17 1003.6 225 S CAPE HAT 0204 64 72 270/ 29/ 35 1001.1 13/10 41 SE CHARLESTON 0300 55 68 280/ 25/ 31 1005.7 8/ 7 $$

USA.gov is the U.S. government's official web portal to all federal, state and local government web resources and services.